Location: Bu�n Treun
(12.1333°N, 108.3167°E)
Time: 13:17:40
(UTC+00:00)

FREGAT/IRIS - Pass Details

Date: 13 July 2020
Orbit: 320 x 326 km, 96.9° (Epoch: 07 August)

Event Time Altitude Azimuth Distance (km) Brightness Sun altitude
Exits shadow 12:46:58 24° 0° (N) 732 4.2 -20.9°
Drops below altitude 10° 12:48:13 10° 355° (N) 1,256 5.6 -21.2°
Sets 12:50:07 0° 353° (N) 2,092 6.8 -21.6°
